User: anonymous   Login
Location: Caltech
(34.1382°N, 118.1253°W)
Time: 04:16:57
(UTC-08:00)
Language:

DELTA 2 R/B (1) - Orbit

View from above orbital plane
View from above orbital plane
View from above satellite
View from above satellite

Ground track
Ground track

The orbit data is extracted from the following two-line orbital elements,

1 27665U 03005C   18053.63728795 -.00000017 +00000-0 +27074-4 0  9991
2 27665 039.5752 274.9988 0007203 101.9168 291.7039 14.28468098786668
Epoch (UTC): 22 February 2018 15:17:41
Eccentricity: 0.0007203
inclination: 39.5752°
perigee height: 791 km
apogee height: 802 km
right ascension of ascending node: 274.9988°
argument of perigee: 101.9168°
revolutions per day: 14.28468098
mean anomaly at epoch: 291.7039°
orbit number at epoch: 78666

The dashed part of the orbit path shows where the satellite is in the earth's shadow,  

DLR